Location: Asheville, NC
(35.6000°N, 82.5500°W)
Time: 14:14:53
(UTC-04:00)

Vanguard 3 - Pass Details

Date: 08 December 2017
Orbit: 508 x 3264 km, 33.3° (Epoch: 24 April)

Event Time Altitude Azimuth Distance (km) Brightness Sun altitude
Rises 17:44:18 0° 273° (W) 2,838 11.3 -5.8°
Reaches altitude 10° 17:46:14 10° 269° (W) 2,083 10.6 -6.2°
Maximum altitude 17:50:51 58° 190° (S) 1,018 7.9 -7.1°
Drops below altitude 10° 17:58:32 10° 113° (ESE) 3,417 9.9 -8.5°
Sets 18:02:31 0° 111° (ESE) 4,865 10.7 -9.2°
